Miscellaneous Local Product
Issued by NWS North Platte, NE

Home | Current Version | Previous Version | Text Only | Print | Product List | Glossary On
Versions: 1 2 3 4 5 6 7 8 9 10 11 12 13 14 15 16 17 18 19 20 21 22 23 24 25 26 27 28 29 30 31 32 33 34 35 36 37 38 39 40 41 42 43 44 45 46 47 48 49 50
796
AXUS43 KLBF 211510
MISLBF


WESTERN AND NORTH CENTRAL NEBRASKA HOURLY WEATHER ROUNDUP
NATIONAL WEATHER SERVICE NORTH PLATTE NE
900 AM CST SAT JAN 21 2017

NOTE: "FAIR" INDICATES FEW OR NO CLOUDS BELOW 12,000 FEET WITH NO
SIGNIFICANT WEATHER AND/OR OBSTRUCTIONS TO VISIBILITY.

NOTE: STATIONS NOT REPORTING VARIABLES SUCH AS SKY/WEATHER OR
PRESSURE ARE PROVIDED BY RAWS AND APRS NETWORKS AND ARE NOT UNDER
NATIONAL WEATHER SERVICE QUALITY CONTROL.

...OBSERVATIONS IN AND NEAR THE EASTERN PANHANDLE OF NEBRASKA...

CITY           SKY/WX    TMP DP  RH WIND       PRES   REMARKS
PINE RIDGE     CLOUDY    29  28  96 SW9       29.38R WCI  20
CHADRON        FOG       26  25  96 W9        29.40R VSB 1/4 WCI  17
ALLIANCE       CLEAR     16  13  88 W6        29.39R WCI   7
SIDNEY         CLEAR     22  19  89 W8        29.40R WCI  12
CRESCENT LAKE    N/A     28  23  82 NW6         N/A  WCI  22
$$

...OBSERVATIONS IN NORTHERN NEBRASKA AND FAR SOUTHERN SOUTH DAKOTA...

CITY           SKY/WX    TMP DP  RH WIND       PRES   REMARKS
WINNER         MOCLDY    28  26  92 CALM      29.36R
VALENTINE      CLEAR     30  27  88 SW9       29.38R WCI  22
THEDFORD       CLEAR     31  30  96 CALM      29.40R
AINSWORTH      CLOUDY    32  32 100 W7        29.38R WCI  25
O`NEILL        PTCLDY    33  32  95 W6        29.38R WCI  28
ORD            CLEAR     35  31  85 SW12      29.41R WCI  27
BROKEN BOW     CLEAR     34  32  92 CALM      29.40S
VALENTINE NWR    N/A     31  30  94 W8          N/A  WCI  24
BUTTE            N/A     30  29  94 W7          N/A  WCI  23
HALSEY           N/A     50  31  48 W3          N/A
SARGENT          N/A     33  24  69 CALM        N/A
CHAMBERS         N/A     33  32  97 CALM        N/A
EWING            N/A     32  31  96 W5          N/A  WCI  27
$$

...OBSERVATIONS IN SOUTHWEST NEBRASKA AND FAR NORTHEAST COLORADO...

CITY           SKY/WX    TMP DP  RH WIND       PRES   REMARKS
WRAY           FAIR      27  21  80 W3        29.43S
HOLYOKE        FAIR      27  21  80 W6        29.42S WCI  20
IMPERIAL       CLEAR     29  23  78 W5        29.43R WCI  24
OGALLALA       CLEAR     26  24  91 W5        29.42R WCI  21
NORTH PLATTE   CLEAR     27  25  92 NW3       29.42S
MCCOOK         CLEAR     29  27  92 W8        29.45R WCI  21
LEXINGTON      CLEAR     30  29  96 CALM      29.43R FOG
STAPLETON        N/A     29  28  94 CALM        N/A
GOTHENBURG       N/A     31  28  89 CALM        N/A
CALLAWAY         N/A     30  29  95 W5          N/A  WCI  25
$$

...OBSERVATIONS IN CENTRAL LINCOLN COUNTY AREA...

CITY           SKY/WX    TMP DP  RH WIND       PRES   REMARKS
N.P. AIRPORT   CLEAR     27  25  92 NW3       29.42S
N.P. DOWNTOWN    N/A     30  28  94 CALM        N/A
N.P. SOUTHEAST   N/A     30  27  90 CALM        N/A
N.P. HILLCREST   N/A     28  27  97 CALM        N/A
$$

...SOME OBSERVATIONS FROM AROUND THE REGION...

CITY           SKY/WX    TMP DP  RH WIND       PRES   REMARKS
LARAMIE        CLOUDY    10   4  76 SW8       29.33F WCI  -2
CHEYENNE       CLOUDY    19  12  74 W6        29.36R WCI  11
DENVER         CLOUDY    22  16  78 S7        29.36S WCI  13
AKRON          CLEAR     30  23  75 S10       29.39R WCI  21
SCOTTSBLUFF    CLEAR     21  16  81 NW5       29.41R WCI  15
RAPID CITY     CLEAR     30  26  85 W9        29.36R WCI  22
BISMARCK       LGT SNOW  28  26  92 W6        29.35R FOG     WCI  22
PIERRE         CLOUDY    26  25  96 NW8       29.35R FOG     WCI  18
SIOUX FALLS    DRZL/FOG  36  36 100 SW3       29.35S VSB 1/4
OMAHA          CLOUDY    40  36  86 SW7       29.43R FOG
GRAND ISLAND   CLOUDY    34  34 100 W10       29.44R WCI  26
KANSAS CITY    FOG       40  38  93 S13       29.50R VSB 1/8 WCI  32
WICHITA        MOSUNNY   33  31  92 S3        29.54R
OKLAHOMA CITY  CLOUDY    43  38  82 S5        29.55S
DALLAS         CLOUDY    54  52  93 S6        29.57F
AMARILLO       PTSUNNY   42  37  82 SW13      29.45S
DODGE CITY     SUNNY     32  30  92 SE5       29.45F WCI  27
HAYS           SUNNY     35  33  92 S5        29.47S WCI  31
GOODLAND       CLEAR     27  25  92 CALM      29.42R
$$




USA.gov is the U.S. government's official web portal to all federal, state and local government web resources and services.